• MPC Preparation (Info)

  • MPEC 2019-P108 : 2019 PD3

    The following Minor Planet Electronic Circular may be linked-to from your own Web pages, but must not otherwise be redistributed electronically.

    A form allowing access to any MPEC is at the bottom of this page.


    Read MPEC 2019-P107 Read MPEC 2019-Q01


    M.P.E.C. 2019-P108                                Issued 2019 August 15, 14:24 UT  
    
         The Minor Planet Electronic Circulars contain information on unusual
             minor planets and routine data on comets.  They are published
        on behalf of Division F of the International Astronomical Union by the
              Minor Planet Center, Smithsonian Astrophysical Observatory,
                              Cambridge, MA 02138, U.S.A.
    
                 Prepared using the Tamkin Foundation Computer Network
    
                                  MPC@CFA.HARVARD.EDU
                URL https://www.minorplanetcenter.net/    ISSN 1523-6714
    
                                    2019 PD3                                 
    
    
    Observations:
         K19P03D  C2019 08 12.50109900 22 12.606+32 51 23.66         20.9 GVEP108F51
         K19P03D  C2019 08 12.62993800 22 30.480+32 40 42.41         21.3 GVEP108F51
         K19P03D* C2019 08 13.51629 00 24 45.213+31 25 24.75         20.4 iUEP108F51
         K19P03D  C2019 08 13.52506 00 24 46.389+31 24 39.37         20.9 iUEP108F51
         K19P03D  C2019 08 13.53458 00 24 47.696+31 23 49.71         20.4 iUEP108F51
         K19P03D pC2019 08 15.01529800 28 25.69 +29 10 25.3          20.9 GVEP108L01
         K19P03D IC2019 08 15.01808400 28 26.01 +29 10 09.9          20.9 GVEP108L01
         K19P03D IC2019 08 15.02521600 28 26.95 +29 09 29.9          21.0 GVEP108L01
         K19P03D KC2019 08 15.02606800 28 27.06 +29 09 25.2          21.0 GVEP108L01
         K19P03D pC2019 08 15.03551300 28 28.46 +29 08 32.3          20.8 GVEP108L01
    
    Observer details:
    F51 Pan-STARRS 1, Haleakala.  Observers J. Bulger, K. Chambers, T. Lowe,
        E. Magnier, A. Schultz, M. Willman.  Measurers S. Chastel, M. Huber,
        Y. Ramanjooloo, R. Wainscoat, R. Weryk, K. Chambers, T. de Boer, L. Denneau,
        J. Fairlamb, H. Flewelling, C.-C. Lin, E. Magnier.  
        1.8-m Ritchey-Chretien + CCD.
    L01 Visnjan Observatory, Tican.  Observers K. Korlevic, F. Valentine.  
        Measurer K. Korlevic.  1.0-m f/2.9 reflector + CCD.
    
    Orbital elements:
    2019 PD3                                                 Earth MOID = 0.1956 AU
    Epoch 2019 Apr. 27.0 TT = JDT 2458600.5                 MPC
    M 323.02868              (2000.0)            P               Q
    n   0.44109733     Peri.  146.40155     +0.64023721     +0.74649385
    a   1.7091484      Node   161.14923     -0.76815927     +0.62053559
    e   0.3197225      Incl.   34.11759     +0.00525864     -0.24017185
    P   2.23           H   21.5           G   0.15           U   8
    Residuals in seconds of arc
    190812 F51  0.1-  0.0     190813 F51  0.1+  0.1-    190815 L01  0.7-  0.0
    190812 F51  0.0   0.0     190815 L01  0.5+  0.2+    190815 L01  0.9+  0.4-
    190813 F51  0.1+  0.0     190815 L01  0.3-  0.3+
    190813 F51  0.1-  0.1+    190815 L01  0.6-  0.1-
    
    Ephemeris:
    2019 PD3                 a,e,i = 1.71, 0.32, 34                  q = 1.1627
    Date    TT    R. A. (2000) Decl.     Delta      r    Elong.  Phase     V
    2019 07 16    23 01 47.7 +52 22 18   0.4990  1.1632    94.0    60.7    22.5
    ...
    2019 07 31    23 47 40.1 +45 29 10   0.3904  1.1671   103.0    57.9    21.9
    ...
    2019 08 08    00 10 22.8 +38 24 06   0.3349  1.1754   110.8    53.8    21.4
    ...
    2019 08 14    00 25 56.3 +30 42 56   0.2983  1.1845   118.4    48.8    21.1
    2019 08 15    00 28 22.6 +29 12 04   0.2929  1.1862   119.8    47.8    21.0
    2019 08 16    00 30 46.0 +27 36 58   0.2878  1.1880   121.3    46.8    20.9
    ...
    2019 08 22    00 43 57.4 +16 38 27   0.2629  1.2000   130.8    39.7    20.6
    ...
    2019 08 30    00 58 01.4 -00 57 25   0.2513  1.2191   142.6    30.2    20.2
    ...
    2019 09 14    01 12 28.5 -30 39 52   0.3053  1.2636   143.1    28.6    20.7
    
    A. U. Tomatic                (C) Copyright 2019 MPC           M.P.E.C. 2019-P108
    


    Read MPEC 2019-P107 Read MPEC 2019-Q01


    MPEC number:

    Enter an MPEC number in one of the following forms:

    • 1997-B01 (the full form)
    • J97B01 (the packed version of the full form)
    • B01 (the abbreviated form)